Darstellungsparameter: Aktuell verwendete Einstellungen:
Skalierung der Graphiken ... ?
xyx+y,   Skalierungsfaktor:      Skalierung: Modus: x, Faktor: 1
Darstellungszeitraum ... ?
Vom - - bis: - -   Zeitraum: 26.10.2021 - 26.10.2021
Min/Max/Avg-Anzeige ... ?
Zeige MMA aktuell
Zeige MMA Monat
Zeige MMA alles
Zeige --A aktuell
Zeige --A Monat
Zeige --A alles
Keine MMA-Anzeige
MMA:
Minimum Maximum Average (ber die Originaldaten)
MMA-Basis: 23.02.2003 - 16.05.2020
Quicknavigation für Darstellung... ?
Tage:      1T, 2T, 3T, 5T -1T -2T -3T -5T +1T +2T +3T +5T
Wochen: 1W, 2W, 3W -1W -2W -3W +1W +2W +3W
Monate: 1M, 3M, 6M -1M -3M -6M +1M +3M +6M
Jahre:    1J, 3J, 5J, 10J -1J -3J -5J -10J +1J +3J +5J +10J
Nutze für die Darstellung ... ?
Originaldaten oder Mittelwerte auf ...
Stundenbasis Tagesbasis Wochenbasis
Monatsbasis Jahresbasis      Datenbasis: Original-Daten
Darstellen als:
Statistik (Auto) Statistik J:M      Darstellung:

Der gewünschte Datumsbereich war nicht gültig/verfügbar und wurde korrigiert....
Das angegebene Enddatum (15.05.2025 23:59:59) liegt in der Zukunft.
Das angegebene Startdatum (15.05.2025 00:00:00) liegt in der Zukunft.


Zur Graphik,    zurück zur Übersicht aller Sensoren.
 
Tabellarische Datenbersicht: ?
 
Sensor: Nr:Datum:Temp:Abs-Feuchte:Windchill:Wind:
Aussen-T/F 1 26-10-2021 02:00:00 10.8 C 9.29 g/m*3 9.93 C 8.1 km/h
2 26-10-2021 02:05:00 10.9 C 9.35 g/m*3 8.9 C 16.1 km/h
3 26-10-2021 02:10:00 10.9 C 9.25 g/m*3 9.51 C 11.3 km/h
4 26-10-2021 02:15:00 11 C 9.31 g/m*3 9.88 C 9.7 km/h
5 26-10-2021 02:20:00 11 C 9.31 g/m*3 9.88 C 9.7 km/h
6 26-10-2021 02:25:00 11 C 9.31 g/m*3 9.88 C 9.7 km/h
7 26-10-2021 02:30:00 11.1 C 9.37 g/m*3 11.1 C 9.7 km/h
8 26-10-2021 02:35:00 11.1 C 9.37 g/m*3 11.1 C 12.9 km/h
9 26-10-2021 02:40:00 11.2 C 9.33 g/m*3 11.2 C 8.1 km/h
10 26-10-2021 02:45:00 11.2 C 9.33 g/m*3 11.2 C 9.7 km/h
11 26-10-2021 02:50:00 11.2 C 9.33 g/m*3 11.2 C 9.7 km/h
12 26-10-2021 02:55:00 11.2 C 9.33 g/m*3 11.2 C 6.4 km/h
13 26-10-2021 03:00:00 11.2 C 9.33 g/m*3 11.2 C 4.8 km/h
14 26-10-2021 03:05:00 11.1 C 9.17 g/m*3 11.1 C 3.2 km/h
15 26-10-2021 03:10:00 11 C 9.21 g/m*3 10.16 C 8.1 km/h
16 26-10-2021 03:15:00 11 C 9.21 g/m*3 9.88 C 9.7 km/h
17 26-10-2021 03:20:00 11 C 9.21 g/m*3 10.52 C 6.4 km/h
18 26-10-2021 03:25:00 11.1 C 9.27 g/m*3 11.1 C 11.3 km/h
19 26-10-2021 03:30:00 11.1 C 9.27 g/m*3 11.1 C 14.5 km/h
20 26-10-2021 03:35:00 11.2 C 9.22 g/m*3 11.2 C 11.3 km/h
21 26-10-2021 03:40:00 11.2 C 9.22 g/m*3 11.2 C 12.9 km/h
22 26-10-2021 03:45:00 11.3 C 9.28 g/m*3 11.3 C 9.7 km/h
23 26-10-2021 03:50:00 11.3 C 9.28 g/m*3 11.3 C 14.5 km/h
24 26-10-2021 03:55:00 11.3 C 9.28 g/m*3 11.3 C 6.4 km/h
25 26-10-2021 04:00:00 11.3 C 9.18 g/m*3 11.3 C 9.7 km/h
Sensor: Nr:Datum:Temp:Abs-Feuchte:Windchill:Wind:
Aussen-T/F 26 26-10-2021 04:05:00 11.3 C 9.18 g/m*3 11.3 C 4.8 km/h
27 26-10-2021 04:10:00 11.3 C 9.18 g/m*3 11.3 C 8.1 km/h
28 26-10-2021 04:15:00 11.3 C 9.18 g/m*3 11.3 C 9.7 km/h
29 26-10-2021 04:20:00 11.3 C 9.18 g/m*3 11.3 C 11.3 km/h
30 26-10-2021 04:25:00 11.3 C 9.18 g/m*3 11.3 C 12.9 km/h
31 26-10-2021 04:30:00 11.3 C 9.18 g/m*3 11.3 C 9.7 km/h
32 26-10-2021 04:35:00 11.3 C 9.18 g/m*3 11.3 C 9.7 km/h
33 26-10-2021 04:40:00 11.3 C 9.18 g/m*3 11.3 C 8.1 km/h
34 26-10-2021 04:45:00 11.2 C 9.12 g/m*3 11.2 C 4.8 km/h
35 26-10-2021 04:50:00 11.2 C 9.12 g/m*3 11.2 C 3.2 km/h
36 26-10-2021 04:55:00 11.2 C 9.22 g/m*3 11.2 C 1.6 km/h
37 26-10-2021 05:00:00 11.1 C 9.17 g/m*3 11.1 C 4.8 km/h
38 26-10-2021 05:05:00 11.1 C 9.17 g/m*3 11.1 C 9.7 km/h
39 26-10-2021 05:10:00 11.1 C 9.17 g/m*3 11.1 C 9.7 km/h
40 26-10-2021 05:15:00 11.1 C 9.17 g/m*3 11.1 C 8.1 km/h
41 26-10-2021 05:20:00 11.1 C 9.17 g/m*3 11.1 C 11.3 km/h
42 26-10-2021 05:25:00 11.2 C 9.22 g/m*3 11.2 C 11.3 km/h
43 26-10-2021 05:30:00 11.2 C 9.22 g/m*3 11.2 C 6.4 km/h
44 26-10-2021 05:35:00 11.3 C 9.28 g/m*3 11.3 C 1.6 km/h
45 26-10-2021 05:40:00 11.3 C 9.28 g/m*3 11.3 C 1.6 km/h
46 26-10-2021 05:45:00 11.2 C 9.22 g/m*3 11.2 C 0 km/h
47 26-10-2021 05:50:00 11.2 C 9.22 g/m*3 11.2 C 1.6 km/h
48 26-10-2021 05:55:00 11.1 C 9.17 g/m*3 11.1 C 6.4 km/h
49 26-10-2021 06:00:00 11.1 C 9.17 g/m*3 11.1 C 1.6 km/h
50 26-10-2021 06:05:00 11.1 C 9.17 g/m*3 11.1 C 0 km/h
Sensor: Nr:Datum:Temp:Abs-Feuchte:Windchill:Wind:
Aussen-T/F 51 26-10-2021 06:10:00 11.1 C 9.17 g/m*3 11.1 C 0 km/h
52 26-10-2021 06:15:00 11 C 9.11 g/m*3 11 C 4.8 km/h
53 26-10-2021 06:20:00 10.9 C 9.15 g/m*3 10.9 C 1.6 km/h
54 26-10-2021 06:25:00 10.9 C 9.15 g/m*3 10.9 C 3.2 km/h
55 26-10-2021 06:30:00 10.9 C 9.15 g/m*3 10.9 C 1.6 km/h
56 26-10-2021 06:35:00 10.9 C 9.15 g/m*3 10.9 C 0 km/h
57 26-10-2021 06:40:00 10.9 C 9.15 g/m*3 10.9 C 0 km/h
58 26-10-2021 06:45:00 10.8 C 9.09 g/m*3 10.8 C 1.6 km/h
59 26-10-2021 06:50:00 10.8 C 9.09 g/m*3 10.8 C 4.8 km/h
60 26-10-2021 06:55:00 10.8 C 9.09 g/m*3 10.29 C 6.4 km/h
61 26-10-2021 07:00:00 10.8 C 9.09 g/m*3 10.29 C 6.4 km/h
62 26-10-2021 07:05:00 10.8 C 9.09 g/m*3 10.8 C 4.8 km/h
63 26-10-2021 07:10:00 10.8 C 9.09 g/m*3 10.29 C 6.4 km/h
64 26-10-2021 07:15:00 10.8 C 9.09 g/m*3 10.8 C 4.8 km/h
65 26-10-2021 07:20:00 10.8 C 9.09 g/m*3 10.8 C 3.2 km/h
66 26-10-2021 07:25:00 10.8 C 9.09 g/m*3 10.29 C 6.4 km/h
67 26-10-2021 07:30:00 10.9 C 9.15 g/m*3 10.04 C 8.1 km/h
68 26-10-2021 07:35:00 10.9 C 9.15 g/m*3 9.51 C 11.3 km/h
69 26-10-2021 07:40:00 11 C 9.21 g/m*3 9.88 C 9.7 km/h
70 26-10-2021 07:45:00 11.1 C 9.27 g/m*3 11.1 C 6.4 km/h
71 26-10-2021 07:50:00 11.1 C 9.27 g/m*3 11.1 C 4.8 km/h
72 26-10-2021 07:55:00 11.2 C 9.22 g/m*3 11.2 C 4.8 km/h
73 26-10-2021 08:00:00 11.2 C 9.33 g/m*3 11.2 C 4.8 km/h
74 26-10-2021 08:05:00 11.2 C 9.22 g/m*3 11.2 C 4.8 km/h
75 26-10-2021 08:10:00 11.1 C 9.17 g/m*3 11.1 C 3.2 km/h
Sensor: Nr:Datum:Temp:Abs-Feuchte:Windchill:Wind:
Aussen-T/F 76 26-10-2021 08:15:00 11 C 9.11 g/m*3 11 C 1.6 km/h
77 26-10-2021 08:20:00 10.9 C 9.05 g/m*3 10.9 C 1.6 km/h
78 26-10-2021 08:25:00 10.8 C 8.99 g/m*3 10.8 C 0 km/h
79 26-10-2021 08:30:00 10.7 C 8.94 g/m*3 10.7 C 1.6 km/h
80 26-10-2021 08:35:00 10.7 C 9.04 g/m*3 10.7 C 1.6 km/h
81 26-10-2021 08:40:00 10.6 C 8.98 g/m*3 10.6 C 4.8 km/h
82 26-10-2021 08:45:00 10.6 C 8.98 g/m*3 9.4 C 9.7 km/h
83 26-10-2021 08:50:00 10.7 C 9.13 g/m*3 9.52 C 9.7 km/h
84 26-10-2021 08:55:00 10.7 C 9.13 g/m*3 9.26 C 11.3 km/h
85 26-10-2021 09:00:00 10.8 C 9.09 g/m*3 9.93 C 8.1 km/h
86 26-10-2021 09:05:00 10.9 C 9.25 g/m*3 9.51 C 11.3 km/h
87 26-10-2021 09:10:00 11.1 C 9.27 g/m*3 11.1 C 12.9 km/h
88 26-10-2021 09:15:00 11.1 C 9.27 g/m*3 11.1 C 8.1 km/h
89 26-10-2021 09:20:00 11.2 C 9.33 g/m*3 11.2 C 14.5 km/h
90 26-10-2021 09:25:00 11.2 C 9.22 g/m*3 11.2 C 14.5 km/h
91 26-10-2021 09:30:00 11.1 C 9.17 g/m*3 11.1 C 8.1 km/h
92 26-10-2021 09:35:00 11.1 C 9.17 g/m*3 11.1 C 9.7 km/h
93 26-10-2021 09:40:00 11.1 C 9.27 g/m*3 11.1 C 9.7 km/h
94 26-10-2021 09:45:00 11.1 C 9.27 g/m*3 11.1 C 12.9 km/h
95 26-10-2021 09:50:00 11.1 C 9.27 g/m*3 11.1 C 9.7 km/h
96 26-10-2021 09:55:00 11.2 C 9.22 g/m*3 11.2 C 8.1 km/h
97 26-10-2021 10:00:00 11.2 C 9.22 g/m*3 11.2 C 11.3 km/h
98 26-10-2021 10:05:00 11.2 C 9.22 g/m*3 11.2 C 9.7 km/h
99 26-10-2021 10:10:00 11.2 C 9.22 g/m*3 11.2 C 9.7 km/h
100 26-10-2021 10:15:00 11.3 C 9.28 g/m*3 11.3 C 11.3 km/h
Sensor: Nr:Datum:Temp:Abs-Feuchte:Windchill:Wind:
Aussen-T/F 101 26-10-2021 10:20:00 11.3 C 9.28 g/m*3 11.3 C 6.4 km/h
102 26-10-2021 10:25:00 11.3 C 9.28 g/m*3 11.3 C 8.1 km/h
103 26-10-2021 10:30:00 11.3 C 9.28 g/m*3 11.3 C 9.7 km/h
104 26-10-2021 10:35:00 11.3 C 9.28 g/m*3 11.3 C 14.5 km/h
105 26-10-2021 10:40:00 11.3 C 9.28 g/m*3 11.3 C 4.8 km/h
106 26-10-2021 10:45:00 11.3 C 9.28 g/m*3 11.3 C 4.8 km/h
107 26-10-2021 10:50:00 11.3 C 9.28 g/m*3 11.3 C 9.7 km/h
108 26-10-2021 10:55:00 11.4 C 9.34 g/m*3 11.4 C 8.1 km/h
109 26-10-2021 11:00:00 11.5 C 9.4 g/m*3 11.5 C 9.7 km/h
110 26-10-2021 11:05:00 11.5 C 9.4 g/m*3 11.5 C 6.4 km/h
111 26-10-2021 11:10:00 11.7 C 9.41 g/m*3 11.7 C 14.5 km/h
112 26-10-2021 11:15:00 11.8 C 9.58 g/m*3 11.8 C 17.7 km/h
113 26-10-2021 11:20:00 12.1 C 9.65 g/m*3 12.1 C 12.9 km/h
114 26-10-2021 11:25:00 12.2 C 9.6 g/m*3 12.2 C 16.1 km/h
115 26-10-2021 11:30:00 12.2 C 9.5 g/m*3 12.2 C 12.9 km/h
116 26-10-2021 11:35:00 12.2 C 9.5 g/m*3 12.2 C 16.1 km/h
117 26-10-2021 11:40:00 12.2 C 9.5 g/m*3 12.2 C 11.3 km/h
118 26-10-2021 11:45:00 12.2 C 9.5 g/m*3 12.2 C 8.1 km/h
119 26-10-2021 11:50:00 12.2 C 9.5 g/m*3 12.2 C 12.9 km/h
120 26-10-2021 11:55:00 12.2 C 9.39 g/m*3 12.2 C 11.3 km/h
121 26-10-2021 12:00:00 12.2 C 9.5 g/m*3 12.2 C 9.7 km/h
122 26-10-2021 12:05:00 12.3 C 9.45 g/m*3 12.3 C 14.5 km/h
123 26-10-2021 12:10:00 12.3 C 9.34 g/m*3 12.3 C 16.1 km/h
124 26-10-2021 12:15:00 12.4 C 9.4 g/m*3 12.4 C 12.9 km/h
125 26-10-2021 12:20:00 12.6 C 9.4 g/m*3 12.6 C 12.9 km/h
Sensor: Nr:Datum:Temp:Abs-Feuchte:Windchill:Wind:
Aussen-T/F 126 26-10-2021 12:25:00 12.7 C 9.46 g/m*3 12.7 C 16.1 km/h
127 26-10-2021 12:30:00 12.8 C 9.41 g/m*3 12.8 C 14.5 km/h
128 26-10-2021 12:35:00 12.9 C 9.58 g/m*3 12.9 C 9.7 km/h
129 26-10-2021 12:40:00 13 C 9.64 g/m*3 13 C 9.7 km/h
130 26-10-2021 12:45:00 13 C 9.64 g/m*3 13 C 9.7 km/h
131 26-10-2021 12:50:00 13.1 C 9.59 g/m*3 13.1 C 11.3 km/h
132 26-10-2021 12:55:00 13.2 C 9.42 g/m*3 13.2 C 16.1 km/h
133 26-10-2021 13:00:00 13.3 C 9.47 g/m*3 13.3 C 17.7 km/h
134 26-10-2021 13:05:00 13.4 C 9.42 g/m*3 13.4 C 16.1 km/h
135 26-10-2021 13:10:00 13.6 C 9.65 g/m*3 13.6 C 14.5 km/h
136 26-10-2021 13:15:00 13.7 C 9.71 g/m*3 13.7 C 17.7 km/h
137 26-10-2021 13:20:00 13.8 C 9.53 g/m*3 13.8 C 12.9 km/h
138 26-10-2021 13:25:00 13.8 C 9.65 g/m*3 13.8 C 14.5 km/h
139 26-10-2021 13:30:00 13.9 C 9.59 g/m*3 13.9 C 12.9 km/h
140 26-10-2021 13:35:00 13.9 C 9.59 g/m*3 13.9 C 19.3 km/h
141 26-10-2021 13:40:00 13.9 C 9.59 g/m*3 13.9 C 11.3 km/h
142 26-10-2021 13:45:00 14 C 9.77 g/m*3 14 C 8.1 km/h
143 26-10-2021 13:50:00 14 C 9.65 g/m*3 14 C 12.9 km/h
144 26-10-2021 13:55:00 14.1 C 9.47 g/m*3 14.1 C 17.7 km/h
145 26-10-2021 14:00:00 14.2 C 9.52 g/m*3 14.2 C 16.1 km/h
146 26-10-2021 14:05:00 14.2 C 9.28 g/m*3 14.2 C 17.7 km/h
147 26-10-2021 14:10:00 14.3 C 9.46 g/m*3 14.3 C 22.5 km/h
148 26-10-2021 14:15:00 14.4 C 9.52 g/m*3 14.4 C 16.1 km/h
149 26-10-2021 14:20:00 14.5 C 9.58 g/m*3 14.5 C 17.7 km/h
150 26-10-2021 14:25:00 14.7 C 9.57 g/m*3 14.7 C 16.1 km/h
Sensor: Nr:Datum:Temp:Abs-Feuchte:Windchill:Wind:
Aussen-T/F 151 26-10-2021 14:30:00 14.8 C 9.63 g/m*3 14.8 C 11.3 km/h
152 26-10-2021 14:35:00 14.8 C 9.5 g/m*3 14.8 C 12.9 km/h
153 26-10-2021 14:40:00 14.9 C 9.56 g/m*3 14.9 C 14.5 km/h
154 26-10-2021 14:45:00 15 C 9.75 g/m*3 15 C 11.3 km/h
155 26-10-2021 14:50:00 15 C 9.62 g/m*3 15 C 16.1 km/h
156 26-10-2021 14:55:00 14.9 C 9.56 g/m*3 14.9 C 11.3 km/h
157 26-10-2021 15:00:00 14.9 C 9.56 g/m*3 14.9 C 9.7 km/h
158 26-10-2021 15:05:00 14.9 C 9.56 g/m*3 14.9 C 9.7 km/h
159 26-10-2021 15:10:00 15 C 9.75 g/m*3 15 C 11.3 km/h
160 26-10-2021 15:15:00 15.1 C 9.29 g/m*3 15.1 C 19.3 km/h
161 26-10-2021 15:20:00 15.1 C 9.29 g/m*3 15.1 C 14.5 km/h
162 26-10-2021 15:25:00 15.2 C 9.48 g/m*3 15.2 C 9.7 km/h
163 26-10-2021 15:30:00 15.2 C 9.35 g/m*3 15.2 C 12.9 km/h
164 26-10-2021 15:35:00 15.1 C 9.42 g/m*3 15.1 C 11.3 km/h
165 26-10-2021 15:40:00 15.1 C 9.42 g/m*3 15.1 C 9.7 km/h
166 26-10-2021 15:45:00 15.2 C 9.35 g/m*3 15.2 C 14.5 km/h
167 26-10-2021 15:50:00 15.3 C 9.53 g/m*3 15.3 C 11.3 km/h
168 26-10-2021 15:55:00 15.3 C 9.53 g/m*3 15.3 C 14.5 km/h
169 26-10-2021 16:00:00 15.3 C 9.53 g/m*3 15.3 C 14.5 km/h
170 26-10-2021 16:05:00 15.4 C 9.46 g/m*3 15.4 C 17.7 km/h
171 26-10-2021 16:10:00 15.4 C 9.46 g/m*3 15.4 C 14.5 km/h
172 26-10-2021 16:15:00 15.3 C 9.27 g/m*3 15.3 C 12.9 km/h
173 26-10-2021 16:20:00 15.3 C 9.53 g/m*3 15.3 C 14.5 km/h
174 26-10-2021 16:25:00 15.3 C 9.4 g/m*3 15.3 C 8.1 km/h
175 26-10-2021 16:30:00 15.2 C 9.35 g/m*3 15.2 C 14.5 km/h
Sensor: Nr:Datum:Temp:Abs-Feuchte:Windchill:Wind:
Aussen-T/F 176 26-10-2021 16:35:00 15.1 C 9.29 g/m*3 15.1 C 14.5 km/h
177 26-10-2021 16:40:00 15.1 C 9.42 g/m*3 15.1 C 12.9 km/h
178 26-10-2021 16:45:00 14.9 C 9.18 g/m*3 14.9 C 16.1 km/h
179 26-10-2021 16:50:00 14.8 C 9.25 g/m*3 14.8 C 14.5 km/h
180 26-10-2021 16:55:00 14.8 C 9.37 g/m*3 14.8 C 12.9 km/h
181 26-10-2021 17:00:00 14.7 C 9.07 g/m*3 14.7 C 16.1 km/h
182 26-10-2021 17:05:00 14.8 C 9.25 g/m*3 14.8 C 17.7 km/h

Legende:
   Min
   Max


Maximal/Minimal-Werte vom 23.02.2003 - 16.05.2020

Sensor Min Max Avg
Temp
(Aussen-T/F)
-16.4 °C
20-12-2009  01:30:01
40.4 °C
25-07-2019  16:20:00
11.1 °C

Die Daten stammen von einer Davis Vantage Pro 2 Wetter-Station und werden unter Linux mit der Software wview2wettercgi und aufbereitet. Alle Angaben erfolgen ohne Gewähr für ihre Vollständigkeit oder Richtigkeit.
Kontakt: Rainer Krienke krienke@uni-koblenz.de . Meine Webseiten an der Uni Koblenz oder privat.
Version: $Revision: 0.78 $